Regional Weather Roundup
Issued by NWS Kansas City/Pleasant Hill, MO

Home | Current Version | Previous Version | Graphics & Text | Print | Product List | Glossary Off
Versions: 1 2 3 4 5 6 7 8 9 10 11 12 13 14 15 16 17 18 19 20 21 22 23 24 25 26 27 28 29 30 31 32 33 34 35 36 37 38 39 40 41 42 43 44 45 46 47 48 49 50

945
ASUS43 KEAX 251610
RWREAX

WEATHER ROUNDUP FOR EASTERN KANSAS AND NORTHWEST MISSOURI
NATIONAL WEATHER SERVICE KANSAS CITY/PLEASANT HILL MO
1100 AM CDT SAT MAR 25 2017

KSZ040-057-103>105-MOZ028-029-037-043-251700-
...KANSAS CITY METROPOLITAN AREA...

CITY           SKY/WX    TMP DP  RH WIND       PRES   REMARKS
K.C. INTL      LGT RAIN  52  51  97 N10       29.84R FOG
K.C. DOWNTOWN  LGT RAIN  57  54  89 E6        29.83R
LEES SUMMIT    LGT RAIN  54  53  97 N5        29.83S FOG
OLATHE - IXD   CLOUDY    49  49 100 NW10      29.84R FOG
OLATHE - OJC   CLOUDY    49  49 100 NW6       29.84R FOG
LAWRENCE       CLOUDY    49  48  97 NW9       29.85S

$$

MOZ001>008-011>017-020>025-030>033-038>040-044>046-053-054-251700-
...NORTHERN AND CENTRAL MISSOURI...

CITY           SKY/WX    TMP DP  RH WIND       PRES   REMARKS
ST. JOSEPH     CLOUDY    48  47  96 N16       29.89R
MOSBY          CLOUDY    59  52  77 NE9       29.83S
WARRENSBURG    CLOUDY    55  52  88 N6        29.80S
WHITEMAN AFB   CLOUDY    57  57 100 CALM      29.81R
CLINTON        CLOUDY    55  54  94 CALM      29.82R
SEDALIA        CLOUDY    58  52  80 S8        29.84R
WARSAW         NOT AVBL
CHILLICOTHE      N/A     52  50  93 N9G20     29.87R
KIRKSVILLE     CLOUDY    54  53  97 NE8       29.86R FOG

$$

MOZ041-047>049-056>058-063>065-088>090-097-251700-
...EASTERN AND SOUTHERN MISSOURI...

CITY           SKY/WX    TMP DP  RH WIND       PRES   REMARKS
ST. LOUIS INTL CLOUDY    61  54  77 S17       29.90R
SPIRIT OF STL  CLOUDY    60  55  83 SE8       29.88R
COLUMBIA       CLOUDY    57  54  89 SE9       29.85R
JEFFERSON CITY CLOUDY    60  53  77 SE10      29.84R
ROLLA          HVY RAIN  56  55  97 SE9       29.84R FOG
OSAGE BEACH    CLOUDY   N/A N/A N/A S3        29.84R
SPRINGFIELD    LGT RAIN  56  52  86 S5        29.80R
BRANSON        PTSUNNY   57  54  88 SW6       29.82R
JOPLIN         CLOUDY    50  48  93 NW12      29.84S
WEST PLAINS    CLOUDY    58  56  93 S12G21    29.83F

$$

IAZ060-094-KSZ022-034>040-054-083-096-NEZ052-066-093-251700-
...KANSAS...SOUTHEAST NEBRASKA AND IOWA...

CITY           SKY/WX    TMP DP  RH WIND       PRES   REMARKS
TOPEKA         LGT RAIN  46  46 100 N15       29.86F FOG
MANHATTAN      LGT RAIN  43  41  93 N9        29.92R FOG
EMPORIA        CLOUDY    45  44  97 N13       29.87S
CHANUTE        CLOUDY    47  42  83 NW17      29.86R
WICHITA        CLOUDY    44  40  85 N14       29.94R
OMAHA          LGT RAIN  42  37  82 N16       29.98S WCI  34
LINCOLN        LGT RAIN  41  39  93 N16       29.99S WCI  33
FALLS CITY     LGT RAIN  43  41  93 N10G18    29.91R
LAMONI         LGT RAIN  42  41  96 NE14      29.91R FOG     WCI  35
DES MOINES     LGT RAIN  41  39  93 NE16      29.95S FOG     WCI  33

$$





USA.gov is the U.S. government's official web portal to all federal, state and local government web resources and services.